TimePST,TemperatureF,Dew PointF,Humidity,Sea Level PressureIn,VisibilityMPH,Wind Direction,Wind SpeedMPH,Gust SpeedMPH,PrecipitationIn,Events,Conditions,WindDirDegrees,DateUTC
12:51 AM,64.0,57.9,80,30.11,10.0,Calm,Calm,-,N/A,,Overcast,0,2012-11-18 08:51:00
1:51 AM,63.0,59.0,87,30.11,10.0,Calm,Calm,-,N/A,,Mostly Cloudy,0,2012-11-18 09:51:00
2:14 AM,62.6,57.2,82,30.10,10.0,Calm,Calm,-,N/A,,Overcast,0,2012-11-18 10:14:00
2:40 AM,62.6,57.2,82,30.10,10.0,Calm,Calm,-,N/A,,Overcast,0,2012-11-18 10:40:00
2:49 AM,62.6,57.2,82,30.10,10.0,Calm,Calm,-,N/A,,Overcast,0,2012-11-18 10:49:00
2:51 AM,63.0,57.9,84,30.10,10.0,Calm,Calm,-,N/A,,Overcast,0,2012-11-18 10:51:00
2:59 AM,62.6,57.2,82,30.10,10.0,Calm,Calm,-,N/A,,Overcast,0,2012-11-18 10:59:00
3:29 AM,62.6,57.2,82,30.09,9.0,Calm,Calm,-,0.01,Rain,Light Rain,0,2012-11-18 11:29:00
3:51 AM,62.1,59.0,90,30.09,8.0,Calm,Calm,-,0.01,,Overcast,0,2012-11-18 11:51:00
4:38 AM,62.6,59.0,88,30.10,9.0,Calm,Calm,-,N/A,,Overcast,0,2012-11-18 12:38:00
4:51 AM,62.1,57.9,86,30.10,10.0,Calm,Calm,-,N/A,,Overcast,0,2012-11-18 12:51:00
5:22 AM,62.6,57.2,82,30.10,9.0,Calm,Calm,-,N/A,,Overcast,0,2012-11-18 13:22:00
5:32 AM,62.6,57.2,82,30.10,9.0,Calm,Calm,-,N/A,,Mostly Cloudy,0,2012-11-18 13:32:00
5:51 AM,62.1,57.9,86,30.10,10.0,Calm,Calm,-,N/A,,Mostly Cloudy,0,2012-11-18 13:51:00
6:25 AM,60.8,57.2,88,30.11,9.0,Calm,Calm,-,N/A,,Overcast,0,2012-11-18 14:25:00
6:51 AM,62.1,57.9,86,30.12,10.0,Calm,Calm,-,0.00,Rain,Light Rain,0,2012-11-18 14:51:00
7:27 AM,62.6,57.2,82,30.13,10.0,Calm,Calm,-,0.00,,Mostly Cloudy,0,2012-11-18 15:27:00
7:51 AM,62.1,57.0,84,30.14,9.0,Calm,Calm,-,0.00,,Mostly Cloudy,0,2012-11-18 15:51:00
8:35 AM,64.4,57.2,77,30.15,9.0,Calm,Calm,-,N/A,,Mostly Cloudy,0,2012-11-18 16:35:00
8:51 AM,64.0,59.0,84,30.15,8.0,WSW,6.9,-,N/A,,Mostly Cloudy,250,2012-11-18 16:51:00
9:51 AM,64.0,57.0,78,30.17,10.0,NW,6.9,-,N/A,,Mostly Cloudy,320,2012-11-18 17:51:00
10:51 AM,66.9,55.0,66,30.16,10.0,WNW,9.2,-,N/A,,Mostly Cloudy,290,2012-11-18 18:51:00
11:25 AM,66.2,55.4,68,30.15,10.0,NW,10.4,-,N/A,,Mostly Cloudy,320,2012-11-18 19:25:00
11:51 AM,66.9,55.9,68,30.14,10.0,NW,8.1,-,N/A,,Mostly Cloudy,310,2012-11-18 19:51:00
12:51 PM,66.9,55.9,68,30.13,10.0,WNW,10.4,-,N/A,,Mostly Cloudy,300,2012-11-18 20:51:00
1:51 PM,66.9,57.0,70,30.12,10.0,WNW,11.5,-,N/A,,Mostly Cloudy,300,2012-11-18 21:51:00
2:51 PM,66.0,55.9,70,30.13,10.0,NW,12.7,-,N/A,,Mostly Cloudy,310,2012-11-18 22:51:00
3:51 PM,64.9,55.0,70,30.13,10.0,NW,10.4,-,N/A,,Mostly Cloudy,310,2012-11-18 23:51:00
4:51 PM,63.0,55.9,78,30.14,10.0,NW,9.2,-,N/A,,Mostly Cloudy,320,2012-11-19 00:51:00
5:51 PM,63.0,55.0,75,30.16,10.0,NNW,5.8,-,N/A,,Mostly Cloudy,330,2012-11-19 01:51:00
6:42 PM,62.6,55.4,77,30.17,10.0,North,4.6,-,N/A,,Mostly Cloudy,360,2012-11-19 02:42:00
6:51 PM,62.1,55.0,78,30.17,10.0,North,4.6,-,N/A,,Mostly Cloudy,10,2012-11-19 02:51:00
7:51 PM,63.0,55.0,75,30.18,10.0,NNE,4.6,-,N/A,,Mostly Cloudy,20,2012-11-19 03:51:00
8:51 PM,62.1,54.0,75,30.19,10.0,NNW,4.6,-,N/A,,Mostly Cloudy,340,2012-11-19 04:51:00
9:43 PM,60.8,53.6,77,30.19,10.0,NE,3.5,-,N/A,,Partly Cloudy,40,2012-11-19 05:43:00
9:51 PM,61.0,54.0,78,30.19,10.0,NNE,3.5,-,N/A,,Partly Cloudy,20,2012-11-19 05:51:00
10:51 PM,60.1,54.0,80,30.20,10.0,Calm,Calm,-,N/A,,Clear,0,2012-11-19 06:51:00
11:51 PM,59.0,54.0,83,30.20,10.0,Calm,Calm,-,N/A,,Clear,0,2012-11-19 07:51:00